Simultaneous Nadir Overpasses (SNOs) Predictions

Prediction of SNOs between AQUA and METOP-A Satellite Orbit:

Table of predicted SNOs for the next 14.0 days since TLE Epoch: 6/29/2013
Index Date (AQUA) Time (AQUA) Lat,Lon (AQUA) SZA (AQUA ) Date (METOP-A) Time (METOP-A) Lat,Lon (METOP-A) SZA (METOP-A ) Distance(km) Time Diff (sec)
1 06/30/2013 06:33:30 73.68, 76.28 50.55 06/30/2013 06:32:19 73.61, 75.44 50.53 27.24 71
2 06/30/2013 07:23:00 -73.92,-116.61 129.19 06/30/2013 07:22:55 -73.91,-116.52 129.20 2.87 5
3 06/30/2013 08:12:28 73.93, 51.00 50.83 06/30/2013 08:13:34 73.94, 50.89 50.83 3.55 66
4 07/03/2013 02:07:48 73.84, 142.35 50.93 07/03/2013 02:06:38 73.86, 142.42 50.95 2.47 70
5 07/03/2013 02:57:15 -73.93, -50.20 128.98 07/03/2013 02:57:19 -73.91, -50.12 129.00 2.88 4
6 07/03/2013 03:46:44 74.00, 117.29 51.10 07/03/2013 03:47:57 73.99, 117.39 51.08 3.45 73
7 07/05/2013 21:42:04 73.87,-151.28 51.22 07/05/2013 21:41:03 73.85,-151.20 51.20 3.41 61
8 07/05/2013 22:31:30 -73.90, 16.31 128.75 07/05/2013 22:31:44 -73.91, 16.27 128.74 1.60 14
9 07/05/2013 23:21:06 74.33,-177.05 51.73 07/05/2013 23:22:15 74.32,-175.36 51.64 50.84 69
10 07/08/2013 17:16:19 73.86, -84.81 51.52 07/08/2013 17:15:28 73.83, -84.83 51.50 2.56 51
11 07/08/2013 18:05:46 -73.93, 82.66 128.40 07/08/2013 18:06:09 -73.90, 82.65 128.44 3.66 23
12 07/11/2013 12:50:33 73.86, -18.38 51.88 07/11/2013 12:49:51 73.87, -18.35 51.90 1.57 42
13 07/11/2013 13:40:00 -73.93, 149.10 128.04 07/11/2013 13:40:32 -73.94, 149.15 128.04 1.62 32




NCC Satellite Simultaneous Nadir Overpasses (SNOs) Prediction Service
